Location: San Antonio
(29.4240°N, 98.4930°W)
Time: 09:53:57
(UTC-05:00)

Transit 2A - All Passes

Search period start: 14 July 2024 00:00
Search period end: 24 July 2024 00:00
Orbit: 591 x 960 km, 66.7° (Epoch: 13 July)

Date Brightness Start Highest point End Pass type
(mag) Time Alt. Az. Time Alt. Az. Time Alt. Az.
14 Jul - 10:53:38 10° SSW 10:58:30 68° WNW 11:03:58 10° NNE daylight
14 Jul - 19:46:01 10° N 19:51:36 31° ENE 19:57:03 10° ESE daylight
14 Jul - 21:29:02 10° NW 21:34:44 36° WSW 21:40:14 10° S visible
15 Jul - 10:18:24 10° SSW 10:23:15 74° ESE 10:28:42 10° NNE daylight
15 Jul - 12:05:05 10° WNW 12:07:06 12° NW 12:09:12 10° NNW daylight
15 Jul - 19:11:21 10° N 19:16:07 22° NE 19:20:47 10° ESE daylight
15 Jul - 20:53:25 10° NW 20:59:36 55° WSW 21:05:33 10° S visible
16 Jul - 09:43:29 10° S 09:48:06 44° ESE 09:53:14 10° NE daylight
16 Jul - 11:27:58 10° W 11:31:30 19° NW 11:35:18 10° N daylight
16 Jul - 18:37:06 10° NNE 18:40:32 15° NE 18:43:55 10° E daylight
16 Jul - 20:18:01 10° NNW 20:24:24 83° WSW 20:30:32 10° SSE daylight
17 Jul - 09:08:56 10° SSE 09:13:02 27° ESE 09:17:28 10° NE daylight
17 Jul - 10:51:40 10° WSW 10:55:59 28° WNW 11:00:43 10° N daylight
17 Jul - 19:42:47 10° NNW 19:49:08 67° ENE 19:55:14 10° SSE daylight
17 Jul - 21:28:14 10° WNW 21:31:36 15° WSW 21:34:56 10° SW visible
18 Jul - 08:35:00 10° SE 08:38:01 16° ESE 08:41:13 10° ENE daylight
18 Jul - 10:15:49 10° SW 10:20:33 44° WNW 10:25:50 10° N daylight
18 Jul - 19:07:43 10° N 19:13:47 45° ENE 19:19:39 10° SE daylight
18 Jul - 20:51:42 10° NW 20:56:35 24° WSW 21:01:19 10° SSW visible
19 Jul - 09:40:17 10° SSW 09:45:13 71° WNW 09:50:45 10° NNE daylight
19 Jul - 18:32:50 10° N 18:38:21 30° ENE 18:43:44 10° ESE daylight
19 Jul - 20:15:47 10° NW 20:21:31 37° WSW 20:27:01 10° S daylight
20 Jul - 09:05:04 10° SSW 09:09:58 72° ESE 09:15:28 10° NNE daylight
20 Jul - 10:51:29 10° WNW 10:53:48 13° NW 10:56:12 10° NNW daylight
20 Jul - 17:58:10 10° N 18:02:51 21° NE 18:07:26 10° ESE daylight
20 Jul - 19:40:10 10° NW 19:46:22 56° WSW 19:52:18 10° S daylight
21 Jul - 08:30:10 10° S 08:34:49 43° ESE 08:39:59 10° NE daylight
21 Jul - 10:14:30 10° W 10:18:11 19° NW 10:22:09 10° N daylight
21 Jul - 17:23:58 10° NNE 17:27:15 14° NE 17:30:30 10° E daylight
21 Jul - 19:04:46 10° NNW 19:11:10 85° WSW 19:17:16 10° SSE daylight
22 Jul - 07:55:39 10° SSE 07:59:45 26° ESE 08:04:12 10° NE daylight
22 Jul - 09:38:15 10° WSW 09:42:40 29° WNW 09:47:32 10° N daylight
22 Jul - 18:29:33 10° NNW 18:35:53 65° ENE 18:41:56 10° SE daylight
22 Jul - 20:14:53 10° WNW 20:18:22 15° WSW 20:21:46 10° SW daylight
23 Jul - 07:21:45 10° SE 07:24:45 16° ESE 07:27:53 10° ENE daylight
23 Jul - 09:02:25 10° SW 09:07:15 46° WNW 09:12:37 10° NNE daylight
23 Jul - 17:54:29 10° N 18:00:31 43° ENE 18:06:19 10° SE daylight
23 Jul - 19:38:24 10° NW 19:43:21 24° WSW 19:48:06 10° SSW daylight
